Time,TemperatureF,DewpointF,PressureIn,WindDirection,WindDirectionDegrees,WindSpeedMPH,WindSpeedGustMPH,Humidity,HourlyPrecipIn,Conditions,Clouds,dailyrainin,SoftwareType,DateUTC
2013-12-12 00:00:00,-999.0,-99.9,30.11,North,-999,-999.0,-999.0,-999,-99.99,,,0.00,weatherlink.com 1.10,2013-12-12 05:00:00,
2013-12-12 00:15:00,-999.0,-99.9,30.11,North,-999,-999.0,-999.0,-999,-99.99,,,0.00,weatherlink.com 1.10,2013-12-12 05:15:00,
2013-12-12 00:30:00,-999.0,-99.9,30.10,North,-999,-999.0,-999.0,-999,-99.99,,,0.00,weatherlink.com 1.10,2013-12-12 05:30:00,
2013-12-12 00:45:00,-999.0,-99.9,30.10,North,-999,-999.0,-999.0,-999,-99.99,,,0.00,weatherlink.com 1.10,2013-12-12 05:45:00,
2013-12-12 01:00:00,-999.0,-99.9,30.09,North,-999,-999.0,-999.0,-999,-99.99,,,0.00,weatherlink.com 1.10,2013-12-12 06:00:00,
2013-12-12 01:15:00,-999.0,-99.9,30.10,North,-999,-999.0,-999.0,-999,-99.99,,,0.00,weatherlink.com 1.10,2013-12-12 06:15:00,
2013-12-12 01:31:00,-999.0,-99.9,30.09,North,-999,-999.0,-999.0,-999,-99.99,,,0.00,weatherlink.com 1.10,2013-12-12 06:31:00,
2013-12-12 01:45:00,-999.0,-99.9,30.09,North,-999,-999.0,-999.0,-999,-99.99,,,0.00,weatherlink.com 1.10,2013-12-12 06:45:00,
2013-12-12 02:00:00,-999.0,-99.9,30.09,North,-999,-999.0,-999.0,-999,-99.99,,,0.00,weatherlink.com 1.10,2013-12-12 07:00:00,
2013-12-12 02:15:00,-999.0,-99.9,30.08,North,-999,-999.0,-999.0,-999,-99.99,,,0.00,weatherlink.com 1.10,2013-12-12 07:15:00,
2013-12-12 02:30:00,-999.0,-99.9,30.08,North,-999,-999.0,-999.0,-999,-99.99,,,0.00,weatherlink.com 1.10,2013-12-12 07:30:00,
2013-12-12 02:45:00,-999.0,-99.9,30.08,North,-999,-999.0,-999.0,-999,-99.99,,,0.00,weatherlink.com 1.10,2013-12-12 07:45:00,
2013-12-12 03:00:00,-999.0,-99.9,30.08,North,-999,-999.0,-999.0,-999,-99.99,,,0.00,weatherlink.com 1.10,2013-12-12 08:00:00,
2013-12-12 03:15:00,-999.0,-99.9,30.08,North,-999,-999.0,-999.0,-999,-99.99,,,0.00,weatherlink.com 1.10,2013-12-12 08:15:00,
2013-12-12 03:30:00,-999.0,-99.9,30.08,North,-999,-999.0,-999.0,-999,-99.99,,,0.00,weatherlink.com 1.10,2013-12-12 08:30:00,
2013-12-12 03:45:00,-999.0,-99.9,30.08,North,-999,-999.0,-999.0,-999,-99.99,,,0.00,weatherlink.com 1.10,2013-12-12 08:45:00,
2013-12-12 04:00:00,-999.0,-99.9,30.08,North,-999,-999.0,-999.0,-999,-99.99,,,0.00,weatherlink.com 1.10,2013-12-12 09:00:00,
2013-12-12 04:15:00,-999.0,-99.9,30.08,North,-999,-999.0,-999.0,-999,-99.99,,,0.00,weatherlink.com 1.10,2013-12-12 09:15:00,
2013-12-12 04:30:00,-999.0,-99.9,30.08,North,-999,-999.0,-999.0,-999,-99.99,,,0.00,weatherlink.com 1.10,2013-12-12 09:30:00,
2013-12-12 04:45:00,-999.0,-99.9,30.08,North,-999,-999.0,-999.0,-999,-99.99,,,0.00,weatherlink.com 1.10,2013-12-12 09:45:00,
2013-12-12 05:00:00,-999.0,-99.9,30.08,North,-999,-999.0,-999.0,-999,-99.99,,,0.00,weatherlink.com 1.10,2013-12-12 10:00:00,
2013-12-12 05:15:00,-999.0,-99.9,30.08,North,-999,-999.0,-999.0,-999,-99.99,,,0.00,weatherlink.com 1.10,2013-12-12 10:15:00,
2013-12-12 05:30:00,-999.0,-99.9,30.09,North,-999,-999.0,-999.0,-999,-99.99,,,0.00,weatherlink.com 1.10,2013-12-12 10:30:00,
2013-12-12 05:45:00,-999.0,-99.9,30.09,North,-999,-999.0,-999.0,-999,-99.99,,,0.00,weatherlink.com 1.10,2013-12-12 10:45:00,
2013-12-12 06:00:00,-999.0,-99.9,30.09,North,-999,-999.0,-999.0,-999,-99.99,,,0.00,weatherlink.com 1.10,2013-12-12 11:00:00,
2013-12-12 06:15:00,-999.0,-99.9,30.09,North,-999,-999.0,-999.0,-999,-99.99,,,0.00,weatherlink.com 1.10,2013-12-12 11:15:00,
2013-12-12 06:30:00,-999.0,-99.9,30.10,North,-999,-999.0,-999.0,-999,-99.99,,,0.00,weatherlink.com 1.10,2013-12-12 11:30:00,
2013-12-12 06:45:00,-999.0,-99.9,30.10,North,-999,-999.0,-999.0,-999,-99.99,,,0.00,weatherlink.com 1.10,2013-12-12 11:45:00,
2013-12-12 07:00:00,-999.0,-99.9,30.10,North,-999,-999.0,-999.0,-999,-99.99,,,0.00,weatherlink.com 1.10,2013-12-12 12:00:00,
2013-12-12 07:15:00,-999.0,-99.9,30.10,North,-999,-999.0,-999.0,-999,-99.99,,,0.00,weatherlink.com 1.10,2013-12-12 12:15:00,
2013-12-12 07:30:00,-999.0,-99.9,30.11,North,-999,-999.0,-999.0,-999,-99.99,,,0.00,weatherlink.com 1.10,2013-12-12 12:30:00,
2013-12-12 07:45:00,-999.0,-99.9,30.12,North,-999,-999.0,-999.0,-999,-99.99,,,0.00,weatherlink.com 1.10,2013-12-12 12:45:00,
2013-12-12 08:00:00,-999.0,-99.9,30.13,North,-999,-999.0,-999.0,-999,-99.99,,,0.00,weatherlink.com 1.10,2013-12-12 13:00:00,
2013-12-12 08:15:00,73.3,71.0,30.13,North,351,1.0,-999.0,91,-99.99,,,0.00,weatherlink.com 1.10,2013-12-12 13:15:00,
2013-12-12 08:30:00,73.9,71.0,30.14,North,360,0.0,-999.0,91,-99.99,,,0.00,weatherlink.com 1.10,2013-12-12 13:30:00,
2013-12-12 08:45:00,74.6,72.0,30.14,NNE,19,4.0,-999.0,90,-99.99,,,0.00,weatherlink.com 1.10,2013-12-12 13:45:00,
2013-12-12 09:00:00,76.3,72.0,30.14,North,350,2.0,-999.0,87,-99.99,,,0.00,weatherlink.com 1.10,2013-12-12 14:00:00,
2013-12-12 09:15:00,77.2,72.0,30.14,North,11,3.0,-999.0,84,-99.99,,,0.00,weatherlink.com 1.10,2013-12-12 14:15:00,
2013-12-12 09:30:00,78.5,73.0,30.15,NW,309,4.0,-999.0,82,-99.99,,,0.00,weatherlink.com 1.10,2013-12-12 14:30:00,
2013-12-12 09:45:00,78.8,72.0,30.16,NNW,348,6.0,-999.0,80,-99.99,,,0.00,weatherlink.com 1.10,2013-12-12 14:45:00,
2013-12-12 10:00:00,78.6,72.0,30.16,NNE,13,4.0,-999.0,79,-99.99,,,0.00,weatherlink.com 1.10,2013-12-12 15:00:00,
2013-12-12 10:15:00,78.5,72.0,30.16,SW,216,3.0,-999.0,79,-99.99,,,0.00,weatherlink.com 1.10,2013-12-12 15:15:00,
2013-12-12 10:30:00,76.7,71.0,30.16,WNW,287,4.0,-999.0,82,-99.99,,,0.00,weatherlink.com 1.10,2013-12-12 15:30:00,
2013-12-12 10:45:00,75.4,70.0,30.16,NNE,13,9.0,-999.0,84,-99.99,,,0.00,weatherlink.com 1.10,2013-12-12 15:45:00,
2013-12-12 11:02:00,74.9,71.0,30.16,NW,310,4.0,-999.0,86,-99.99,,,0.00,weatherlink.com 1.10,2013-12-12 16:02:00,
2013-12-12 11:15:00,74.6,70.0,30.16,NW,317,4.0,-999.0,86,-99.99,,,0.00,weatherlink.com 1.10,2013-12-12 16:15:00,
2013-12-12 11:30:00,75.8,71.0,30.15,WNW,290,3.0,-999.0,84,-99.99,,,0.00,weatherlink.com 1.10,2013-12-12 16:30:00,
2013-12-12 11:45:00,77.4,71.0,30.14,NNE,21,7.0,-999.0,80,-99.99,,,0.00,weatherlink.com 1.10,2013-12-12 16:45:00,
2013-12-12 12:00:00,78.1,70.0,30.14,NW,320,6.0,-999.0,76,-99.99,,,0.00,weatherlink.com 1.10,2013-12-12 17:00:00,
2013-12-12 12:15:00,79.4,70.0,30.13,NW,323,2.0,-999.0,72,-99.99,,,0.00,weatherlink.com 1.10,2013-12-12 17:15:00,
2013-12-12 12:30:00,80.1,69.0,30.13,NNE,27,5.0,-999.0,69,-99.99,,,0.00,weatherlink.com 1.10,2013-12-12 17:30:00,
2013-12-12 12:45:00,80.3,69.0,30.11,NNE,31,4.0,-999.0,69,-99.99,,,0.00,weatherlink.com 1.10,2013-12-12 17:45:00,
2013-12-12 13:00:00,79.4,70.0,30.11,NNE,28,9.0,-999.0,74,-99.99,,,0.00,weatherlink.com 1.10,2013-12-12 18:00:00,
2013-12-12 13:15:00,78.5,70.0,30.10,NNE,30,8.0,-999.0,76,-99.99,,,0.00,weatherlink.com 1.10,2013-12-12 18:15:00,
2013-12-12 13:30:00,77.6,70.0,30.10,NNE,21,7.0,-999.0,77,-99.99,,,0.00,weatherlink.com 1.10,2013-12-12 18:30:00,
2013-12-12 13:45:00,78.3,70.0,30.09,ENE,61,8.0,-999.0,76,-99.99,,,0.00,weatherlink.com 1.10,2013-12-12 18:45:00,
2013-12-12 14:00:00,78.3,69.0,30.08,NNE,15,11.0,-999.0,74,-99.99,,,0.00,weatherlink.com 1.10,2013-12-12 19:00:00,
2013-12-12 14:15:00,77.7,70.0,30.08,NNE,20,6.0,-999.0,76,-99.99,,,0.00,weatherlink.com 1.10,2013-12-12 19:15:00,
2013-12-12 14:30:00,78.3,69.0,30.08,East,83,12.0,-999.0,74,-99.99,,,0.00,weatherlink.com 1.10,2013-12-12 19:30:00,
2013-12-12 14:45:00,77.4,69.0,30.08,NNE,17,7.0,-999.0,75,-99.99,,,0.00,weatherlink.com 1.10,2013-12-12 19:45:00,
2013-12-12 15:00:00,77.9,69.0,30.08,NE,52,5.0,-999.0,73,-99.99,,,0.00,weatherlink.com 1.10,2013-12-12 20:00:00,
2013-12-12 15:15:00,77.4,69.0,30.08,NNE,26,5.0,-999.0,75,-99.99,,,0.00,weatherlink.com 1.10,2013-12-12 20:15:00,
2013-12-12 15:30:00,76.8,68.0,30.08,North,360,11.0,-999.0,74,-99.99,,,0.00,weatherlink.com 1.10,2013-12-12 20:30:00,
2013-12-12 15:45:00,76.1,67.0,30.08,NNE,17,6.0,-999.0,73,-99.99,,,0.00,weatherlink.com 1.10,2013-12-12 20:45:00,
2013-12-12 16:00:00,76.7,67.0,30.08,NE,36,4.0,-999.0,71,-99.99,,,0.00,weatherlink.com 1.10,2013-12-12 21:00:00,
2013-12-12 16:15:00,75.6,65.0,30.08,NE,38,5.0,-999.0,70,-99.99,,,0.00,weatherlink.com 1.10,2013-12-12 21:15:00,
2013-12-12 16:30:00,75.4,66.0,30.08,NNE,17,3.0,-999.0,72,-99.99,,,0.00,weatherlink.com 1.10,2013-12-12 21:30:00,
2013-12-12 16:45:00,74.7,65.0,30.09,North,351,10.0,-999.0,72,-99.99,,,0.00,weatherlink.com 1.10,2013-12-12 21:45:00,
2013-12-12 17:00:00,74.0,64.0,30.10,North,360,2.0,-999.0,72,-99.99,,,0.00,weatherlink.com 1.10,2013-12-12 22:00:00,
2013-12-12 17:15:00,73.2,63.0,30.10,NNE,24,6.0,-999.0,71,-99.99,,,0.00,weatherlink.com 1.10,2013-12-12 22:15:00,
2013-12-12 17:30:00,-999.0,-99.9,30.10,North,-999,-999.0,-999.0,-999,-99.99,,,0.00,weatherlink.com 1.10,2013-12-12 22:30:00,
2013-12-12 17:45:00,-999.0,-99.9,30.10,North,-999,-999.0,-999.0,-999,-99.99,,,0.00,weatherlink.com 1.10,2013-12-12 22:45:00,
2013-12-12 18:00:00,-999.0,-99.9,30.10,North,-999,-999.0,-999.0,-999,-99.99,,,0.00,weatherlink.com 1.10,2013-12-12 23:00:00,
2013-12-12 18:15:00,-999.0,-99.9,30.11,North,-999,-999.0,-999.0,-999,-99.99,,,0.00,weatherlink.com 1.10,2013-12-12 23:15:00,
2013-12-12 18:30:00,-999.0,-99.9,30.11,North,-999,-999.0,-999.0,-999,-99.99,,,0.00,weatherlink.com 1.10,2013-12-12 23:30:00,
2013-12-12 18:45:00,-999.0,-99.9,30.11,North,-999,-999.0,-999.0,-999,-99.99,,,0.00,weatherlink.com 1.10,2013-12-12 23:45:00,
2013-12-12 19:00:00,-999.0,-99.9,30.11,North,-999,-999.0,-999.0,-999,-99.99,,,0.00,weatherlink.com 1.10,2013-12-13 00:00:00,
2013-12-12 19:15:00,-999.0,-99.9,30.11,North,-999,-999.0,-999.0,-999,-99.99,,,0.00,weatherlink.com 1.10,2013-12-13 00:15:00,
2013-12-12 19:30:00,-999.0,-99.9,30.11,North,-999,-999.0,-999.0,-999,-99.99,,,0.00,weatherlink.com 1.10,2013-12-13 00:30:00,
2013-12-12 19:45:00,-999.0,-99.9,30.11,North,-999,-999.0,-999.0,-999,-99.99,,,0.00,weatherlink.com 1.10,2013-12-13 00:45:00,
2013-12-12 20:00:00,-999.0,-99.9,30.12,North,-999,-999.0,-999.0,-999,-99.99,,,0.00,weatherlink.com 1.10,2013-12-13 01:00:00,
2013-12-12 20:15:00,-999.0,-99.9,30.12,North,-999,-999.0,-999.0,-999,-99.99,,,0.00,weatherlink.com 1.10,2013-12-13 01:15:00,
2013-12-12 20:30:00,-999.0,-99.9,30.13,North,-999,-999.0,-999.0,-999,-99.99,,,0.00,weatherlink.com 1.10,2013-12-13 01:30:00,
2013-12-12 20:45:00,-999.0,-99.9,30.13,North,-999,-999.0,-999.0,-999,-99.99,,,0.00,weatherlink.com 1.10,2013-12-13 01:45:00,
2013-12-12 21:00:00,-999.0,-99.9,30.13,North,-999,-999.0,-999.0,-999,-99.99,,,0.00,weatherlink.com 1.10,2013-12-13 02:00:00,
2013-12-12 21:15:00,-999.0,-99.9,30.13,North,-999,-999.0,-999.0,-999,-99.99,,,0.00,weatherlink.com 1.10,2013-12-13 02:15:00,
2013-12-12 21:30:00,-999.0,-99.9,30.13,North,-999,-999.0,-999.0,-999,-99.99,,,0.00,weatherlink.com 1.10,2013-12-13 02:30:00,
2013-12-12 21:45:00,-999.0,-99.9,30.14,North,-999,-999.0,-999.0,-999,-99.99,,,0.00,weatherlink.com 1.10,2013-12-13 02:45:00,
2013-12-12 22:00:00,-999.0,-99.9,30.14,North,-999,-999.0,-999.0,-999,-99.99,,,0.00,weatherlink.com 1.10,2013-12-13 03:00:00,
2013-12-12 22:15:00,-999.0,-99.9,30.14,North,-999,-999.0,-999.0,-999,-99.99,,,0.00,weatherlink.com 1.10,2013-12-13 03:15:00,
2013-12-12 22:30:00,-999.0,-99.9,30.14,North,-999,-999.0,-999.0,-999,-99.99,,,0.00,weatherlink.com 1.10,2013-12-13 03:30:00,
2013-12-12 22:45:00,-999.0,-99.9,30.14,North,-999,-999.0,-999.0,-999,-99.99,,,0.00,weatherlink.com 1.10,2013-12-13 03:45:00,
2013-12-12 23:00:00,-999.0,-99.9,30.13,North,-999,-999.0,-999.0,-999,-99.99,,,0.00,weatherlink.com 1.10,2013-12-13 04:00:00,
2013-12-12 23:15:00,-999.0,-99.9,30.13,North,-999,-999.0,-999.0,-999,-99.99,,,0.00,weatherlink.com 1.10,2013-12-13 04:15:00,
2013-12-12 23:30:00,-999.0,-99.9,30.13,North,-999,-999.0,-999.0,-999,-99.99,,,0.00,weatherlink.com 1.10,2013-12-13 04:30:00,
2013-12-12 23:45:00,-999.0,-99.9,30.13,North,-999,-999.0,-999.0,-999,-99.99,,,0.00,weatherlink.com 1.10,2013-12-13 04:45:00,